Find STARLINK-37571

NORAD ID: 70631 Constellation: starlink operational
LEOCIRCULARRETROGRADE

リアルタイム位置

3D地球を読み込み中...

STARLINK-37571について

説明を読み込み中...

次回通過

Passes for default location (London). Set your location on the main map for personalized predictions.

高度履歴

Loading altitude history...

軌道要素

1 70631C 26101U 26126.30881944 .00373040 00000+0 58277-3 0 1261
2 70631 97.2845 339.8490 0010130 258.1548 331.8323 16.03745774 16
Epoch: May 6, 2026 • Age: 18 hours